Regional Weather Roundup
Issued by NWS Jackson, KY

Home | Current Version | Previous Version | Graphics & Text | Print | Product List | Glossary On
Versions: 1 2 3 4 5 6 7 8 9 10 11 12 13 14 15 16 17 18 19 20 21 22 23 24 25 26 27 28 29 30 31 32 33 34 35 36 37 38 39 40 41 42 43 44 45 46 47 48 49 50
000
ASUS43 KJKL 171910
RWRJKL

EAST KENTUCKY HOURLY WEATHER ROUNDUP
NATIONAL WEATHER SERVICE JACKSON KY
300 PM EDT FRI APR 17 2015

NOTE: "FAIR" INDICATES FEW OR NO CLOUDS BELOW 12,000 FEET WITH
NO SIGNIFICANT WEATHER AND/OR OBSTRUCTIONS TO VISIBILITY.

* THESE REPORTS ARE NOT UNDER NWS QUALITY CONTROL AND MAY NOT
  REPORT WEATHER SUCH AS PRECIPITATION AND FOG.

KYZ079-080-083-085-087-088-110-112-115-119-120-172000
...EASTERN KENTUCKY...

CITY           SKY/WX    TMP DP  RH WIND       PRES   REMARKS
JACKSON        CLOUDY    71  57  61 VRB3      30.08F
LONDON         MOSUNNY   72  54  53 VRB3      30.08F
SOMERSET*      PTSUNNY   68  57  68 N5        30.09F
MONTICELLO*    PTSUNNY   72  60  65 CALM      30.11F
MIDDLESBORO*   PTSUNNY   73  58  60 CALM      30.08F
HARLAN APT*    CLOUDY    73  52  46 W5        30.06F
HAZARD APT*    MOCLDY    72  57  60 CALM      30.08F
BLACK MTN*       N/A     61  54  77 W1          N/A
PIKEVILLE APT* MOSUNNY   70  59  68 CALM      30.08F
BIG SANDY*     CLOUDY    71  58  62 SW3       30.08F
MOREHEAD APT*  MOCLDY    72  57  60 W6        30.09F
$$

KYZ035-036-041-042-044-050-067-078-099-172000
...CENTRAL KENTUCKY...

CITY           SKY/WX    TMP DP  RH WIND       PRES   REMARKS
MT STERLING*   PTSUNNY   70  59  68 S3        30.09F
FLEMING/MASON* PTSUNNY   70  59  68 CALM      30.07F
DANVILLE*      PTSUNNY   68  59  73 E3        30.09F
RICHMOND*      PTSUNNY   72  57  60 CALM      30.08F
LEXINGTON      PTSUNNY   70  59  68 SW5       30.07F
FRANKFORT      PTSUNNY   72  57  59 CALM      30.05F
$$

KYZ091>093-OHZ055-061-077-WVZ005-015-034-035-042-172000
...SOUTHERN OHIO/WEST VIRGINIA...

CITY           SKY/WX    TMP DP  RH WIND       PRES   REMARKS
COVINGTON      PTSUNNY   72  50  45 NW6       30.07F
COLUMBUS       MOSUNNY   72  48  42 NW9       30.05F
DAYTON         PTSUNNY   73  41  31 VRB5      30.08F
WILMINGTON     MOSUNNY   71  47  42 CALM      30.07F
HUNTINGTON     PTSUNNY   74  59  59 N8        30.05F
CHARLESTON     PTSUNNY   73  57  57 NE3       30.05F
PINEVILLE*     PTSUNNY   73  56  53 MISG      30.12F
BECKLEY        CLOUDY    72  51  47 VRB6      30.09F
BLUEFIELD      PTSUNNY   72  49  44 W6G17     30.11F
$$

VAZ002-007-008-TNZ017-027-036-066-071-172000
...SOUTHWEST VIRGINIA/EAST TENNESSEE...

CITY           SKY/WX    TMP DP  RH WIND       PRES   REMARKS
WISE*          PTSUNNY   70  50  49 N3        30.12F
JONESVILLE*    MOCLDY    73  55  53 SW6       30.09F
ABINGDON*      MOSUNNY   74  55  50 NW3       30.09F
BRISTOL        PTSUNNY   73  56  54 W6        30.08F
KNOXVILLE      CLOUDY    69  58  67 CALM      30.07F
OAK RIDGE      CLOUDY    71  58  63 S3        30.08F
CROSSVILLE     CLOUDY    70  56  61 SE5       30.09F
NASHVILLE      CLOUDY    68  59  73 CALM      30.07F
$$

...KEY TO REMARKS...
VSB - VISIBILITY IN MILES
WCI - WIND CHILL INDEX
HX  - HEAT INDEX

$$



USA.gov is the U.S. government's official web portal to all federal, state and local government web resources and services.